Вернуться в каталог

STARLINK-4774

АктивенСвязьVLEO
NORAD 56138·PAYLOAD·🇺🇸 United States

Запущен Mar 29, 2023 с Cape Canaveral Space Force Station

Loading…

Ближайшие Пролёты (ближайшие 24 часа)

TLE

СвежийSource: CelesTrak SupGP

Эпоха: Sep 14, 2026, 20:51 UTC

1 56138C 23046AX  26257.86923611 -.00021319  00000+0 -77233-3 0  2575
2 56138  42.9991 158.7920 0000955 248.3247 356.5883 15.27583003    13

Отслеживайте STARLINK-4774 в реальном времени с AllMySat

Download on the App Store